Location: Brno
(49.2000°N, 16.6330°E)
Time: 06:55:01
(UTC+02:00)

Meteor 1-4 Rocket - Visible Passes

Search period start: 26 August 2016 00:00
Search period end: 05 September 2016 00:00
Orbit: 455 x 513 km, 81.2° (Epoch: 25 August)

Date Brightness Start Highest point End Pass type
(mag) Time Alt. Az. Time Alt. Az. Time Alt. Az.
26 Aug 4.7 02:30:55 21° ENE 02:30:55 21° ENE 02:32:59 10° NE visible
26 Aug 3.7 04:05:17 26° WNW 04:05:17 26° WNW 04:08:18 10° N visible
27 Aug 5.3 02:06:27 13° ENE 02:06:27 13° ENE 02:07:29 10° NE visible
27 Aug 3.4 03:40:49 36° NW 03:40:49 36° NW 03:43:37 10° N visible
28 Aug 3.5 03:16:20 41° NNW 03:16:20 41° NNW 03:18:49 10° N visible
29 Aug 4.1 02:51:50 33° NNE 02:51:50 33° NNE 02:53:55 10° NNE visible
30 Aug 4.8 02:27:19 24° NNE 02:27:19 24° NNE 02:28:55 10° NNE visible
30 Aug 4.8 04:01:41 13° NW 04:01:41 13° NW 04:02:50 10° NNW visible
31 Aug 5.3 02:02:47 17° NE 02:02:47 17° NE 02:03:48 10° NNE visible
31 Aug 4.7 03:37:09 16° NW 03:37:09 16° NW 03:38:34 10° NNW visible
01 Sep 5.7 01:38:14 12° NE 01:38:14 12° NE 01:38:32 10° NE visible
01 Sep 4.7 03:12:36 19° NNW 03:12:36 19° NNW 03:14:00 10° N visible
02 Sep 4.9 02:48:02 19° N 02:48:02 19° N 02:49:17 10° N visible
03 Sep 5.2 02:23:27 18° N 02:23:27 18° N 02:24:27 10° N visible
04 Sep 5.6 01:58:51 15° NNE 01:58:51 15° NNE 01:59:31 10° NNE visible
